This demonstration page uses our WeatherBlox Daily Observations layout. Learn more.

39.92423, -83.80882

Hourly Observations for April 11, 2015

Temp ( °F °C ) Dew Point ( °F °C ) Humidity (%) Winds ( mph kmh ) Pressure ( in mb ) Visibility ( mi km ) Precip ( " mm )
12:56 am 00:56 Clear 47 8.3 33 0.5 58 58 WNW 18 30 30.11 1020 7 11.26538 0 0
1:56 am 01:56 Clear 45 7.2 37 2.7 73 73 NW 14 22 30.14 1021 7 11.26538 0 0
2:56 am 02:56 Clear 43 6.1 37 2.7 79 79 NW 9 15 30.15 1021 7 11.26538 0 0
3:56 am 03:56 Clear 41 5 37 2.7 85 85 NW 7 11 30.17 1022 7 11.26538 0 0
4:56 am 04:56 Clear 39 3.8 36 2.2 89 89 NW 6 9 30.19 1023 7 11.26538 0 0
5:56 am 05:56 Clear 38 3.3 36 2.2 93 93 WNW 3 6 30.21 1023 7 11.26538 0 0
6:56 am 06:56 Clear with Mist and Fog 36 2.2 35 1.6 96 96 NW 6 9 30.24 1024 6 9.65604 0 0
7:56 am 07:56 Sunny with Mist and Fog 37 2.7 37 2.7 100 100 Calm 30.27 1025 4 6.43736 0 0
8:56 am 08:56 Sunny with Mist and Fog 42 5.5 38 3.3 86 86 N 6 9 30.28 1025 5 8.0467 0 0
9:56 am 09:56 Hazy 46 7.7 38 3.3 74 74 NNW 6 9 30.29 1026 6 9.65604 0 0
10:56 am 10:56 Hazy 49 9.4 35 1.6 59 59 NW 5 7 30.31 1026 6 9.65604 0 0
11:56 am 11:56 Hazy 51 10.5 35 1.6 54 54 WSW 5 7 30.31 1026 6 9.65604 0 0
12:56 pm 12:56 Hazy 54 12.2 34 1.1 47 47 Calm 30.29 1026 6 9.65604 0 0
1:56 pm 13:56 Hazy 57 13.8 34 1.1 42 42 N 9 15 30.29 1026 6 9.65604 0 0
2:56 pm 14:56 Hazy 56 13.3 34 1.1 44 44 VRB 5 7 30.28 1025 6 9.65604 0 0
3:56 pm 15:56 Hazy 60 15.5 34 1.1 38 38 NNE 7 11 30.25 1024 6 9.65604 0 0
4:56 pm 16:56 Hazy 59 15 32 0 36 36 NNW 3 6 30.25 1024 6 9.65604 0 0
5:56 pm 17:56 Hazy 59 15 32 0 36 36 WNW 7 11 30.25 1024 6 9.65604 0 0
6:56 pm 18:56 Hazy 58 14.4 33 0.5 39 39 Calm 30.24 1024 6 9.65604 0 0
7:56 pm 19:56 Hazy 56 13.3 32 0 40 40 Calm 30.24 1024 6 9.65604 0 0
8:56 pm 20:56 Clear 53 11.6 32 0 45 45 Calm 30.26 1025 7 11.26538 0 0
9:56 pm 21:56 Clear 47 8.3 37 2.7 68 68 ESE 3 6 30.27 1025 8 12.87472 0 0
10:56 pm 22:56 Clear 44 6.6 38 3.3 80 80 E 5 7 30.27 1025 7 11.26538 0 0
11:56 pm 23:56 Clear 43 6.1 37 2.7 79 79 SE 3 6 30.27 1025 7 11.26538 0 0

Powered by AerisWeather